Snowfall_Accumulation
0.0 0.0 0.0 0.0 0.0 0.0 0.0 0.0 0.0 0.0 0.0 0.0 0.0 0.0 0.0 0.0 0.0 0.0 0.0 0.0 2.4 9.2 0.3 0.0 0.0 0.2 0.5 1.3 4.6 3.1 7.1 3.5 6.2 8.4 5.8 5.7 5.4 5.1 2.4 0.1 1.3 3.7 0.9 1.5 0.9 1.2 0.5 0.0 0.0 0.0 0.1 0.0 0.0 0.0
0.0 0.0 0.0 0.0 0.0 0.0 0.0 0.0 0.0 0.0 0.0 0.0 0.0 0.0 0.0 0.0 0.0 0.0 0.3 0.0 0.0 2.9 0.7 0.0 0.0 0.0 0.0 0.0 1.7 3.0 6.2 4.2 4.3 6.3 6.1 4.6 4.5 2.7 0.1 1.8 0.2 7.2 4.7 3.8 0.8 0.0 0.0 0.0 0.0 0.0 0.0 0.0 0.0 0.0
0.0 0.0 0.0 0.0 0.0 0.0 0.0 0.0 0.0 0.0 0.0 0.0 0.0 0.0 0.0 0.0 0.0 0.0 0.0 0.0 0.7 3.0 0.0 0.0 0.0 0.0 0.0 0.0 1.0 6.6 2.4 5.1 5.1 4.8 9.7 5.3 5.8 3.4 4.2 2.1 1.9 1.2 0.5 1.4 0.1 0.0 0.0 0.0 0.0 0.0 0.0 0.0 0.0 0.0
0.0 0.0 0.0 0.0 0.0 0.0 0.0 0.0 0.0 0.0 0.0 0.0 0.0 0.0 0.0 0.0 0.0 0.0 0.0 0.0 0.6 2.6 2.3 0.0 0.0 0.0 0.0 0.0 0.8 1.0 2.4 3.1 7.1 7.9 13.7 7.9 5.1 4.0 3.6 3.9 4.3 2.2 0.0 0.2 0.0 0.0 0.1 0.0 0.0 0.0 0.0 0.0 0.0 0.0
0.0 0.0 0.0 0.0 0.0 0.0 0.0 0.0 0.0 0.0 0.0 0.0 0.0 0.0 0.0 0.0 0.0 0.0 0.0 0.0 0.0 2.0 1.2 0.1 0.0 0.0 0.0 0.1 1.7 3.9 7.3 10.5 17.1 18.0 14.6 9.6 3.4 6.0 2.4 4.9 5.4 2.2 1.4 0.9 0.0 0.0 0.0 0.0 0.0 0.0 0.0 0.0 0.0 0.0
0.0 0.0 0.0 0.0 0.0 0.0 0.0 0.0 0.0 0.0 0.0 0.0 0.0 0.0 0.0 0.0 0.0 0.0 0.0 0.0 0.0 0.9 3.7 0.5 0.0 0.0 0.0 0.7 3.8 5.6 6.5 10.4 11.8 10.6 11.7 10.2 8.0 9.6 7.4 5.7 4.3 2.0 0.7 0.5 0.5 0.0 0.0 0.0 0.0 0.0 0.0 0.0 0.0 0.0
0.0 0.0 0.0 0.0 0.0 0.0 0.0 0.0 0.0 0.0 0.0 0.0 0.0 0.0 0.0 0.0 0.0 0.3 0.1 0.0 0.0 0.0 2.0 1.2 0.4 0.2 0.7 1.7 2.7 5.0 5.1 6.9 9.0 9.7 8.7 9.2 8.9 5.0 4.6 6.1 5.9 2.8 1.3 0.3 0.0 0.0 0.2 0.0 0.3 0.0 0.1 0.0 0.0 0.1
0.0 0.0 0.0 0.0 0.0 0.0 0.0 0.0 0.0 0.0 0.0 0.0 0.0 0.0 0.0 0.0 0.0 0.0 0.0 0.0 0.2 1.6 1.9 2.3 0.4 1.0 0.7 2.3 4.8 1.9 4.4 3.3 4.1 5.5 5.6 6.8 6.0 4.6 8.5 11.0 9.0 6.6 3.6 2.2 1.4 0.9 0.5 0.7 0.5 0.6 0.4 0.3 0.5 1.0
0.0 0.0 0.0 0.0 0.0 0.0 0.0 0.0 0.0 0.0 0.0 0.0 0.0 0.0 0.0 0.0 0.3 0.3 0.0 0.0 0.4 2.6 3.7 2.9 3.7 2.2 0.8 2.8 4.9 6.6 3.7 4.1 3.2 5.2 6.1 2.1 5.3 13.4 16.3 13.0 11.2 9.1 5.5 6.0 2.6 2.5 2.4 1.7 1.9 1.8 1.1 1.3 1.3 2.0
0.0 0.0 0.0 0.0 0.0 0.0 0.0 0.0 0.0 0.0 0.0 0.0 0.0 0.0 0.5 0.1 0.0 0.0 1.3 3.0 3.0 2.7 2.3 2.9 0.5 2.6 2.4 3.5 4.8 7.1 2.8 3.3 4.1 6.7 3.1 5.0 16.2 17.1 16.6 14.0 12.6 11.9 11.0 7.5 5.8 7.6 4.1 3.7 3.4 3.1 2.9 2.6 1.7 1.9
0.0 0.0 0.0 0.0 0.0 0.0 0.0 0.0 0.0 0.0 0.0 0.0 0.0 0.1 0.0 0.0 0.5 1.0 1.8 2.2 1.0 2.8 0.0 1.4 2.1 4.4 2.6 6.2 5.2 4.2 3.2 2.1 3.2 3.3 0.8 5.3 13.6 19.8 15.0 12.6 12.3 11.6 10.4 10.3 7.6 6.9 3.9 3.7 3.7 2.9 2.4 1.3 0.8 0.5
0.0 0.0 0.0 0.0 0.0 0.0 0.0 0.0 0.0 0.0 0.0 0.0 0.0 0.1 0.1 0.0 0.0 0.3 0.4 0.0 0.3 1.2 0.7 2.4 2.8 3.5 2.6 2.7 4.1 2.2 1.6 0.0 3.3 1.4 0.2 8.4 18.2 16.2 11.8 12.9 11.6 10.0 7.9 9.1 5.7 5.0 3.7 3.1 1.9 1.5 1.4 1.2 0.9 0.9
0.0 0.0 0.0 0.0 0.0 0.0 0.0 0.0 0.0 0.0 0.0 0.0 0.0 0.0 0.0 0.0 0.0 0.4 1.0 0.3 0.8 1.1 1.6 3.2 3.2 1.6 0.8 1.0 1.7 0.4 0.4 2.0 0.5 0.2 5.5 13.9 16.3 12.4 10.6 8.1 8.1 7.3 5.8 5.5 5.5 5.0 3.7 3.5 2.3 1.7 2.0 1.7 0.9 0.3
0.0 0.0 0.0 0.0 0.0 0.0 0.0 0.0 0.0 0.0 0.0 0.0 0.0 0.0 0.0 0.0 1.7 3.7 4.9 3.6 2.4 2.9 2.6 2.0 1.4 1.0 0.5 0.5 0.6 0.0 0.8 0.4 1.1 2.4 9.3 12.1 9.1 6.8 4.9 4.7 2.5 3.0 2.1 1.8 2.6 1.9 1.4 0.1 0.0 0.0 0.0 0.0 0.0 0.1
0.0 0.0 0.0 0.0 0.0 0.0 0.0 0.0 0.0 0.0 0.0 0.0 0.0 0.9 1.8 2.4 3.9 3.1 2.2 1.9 1.5 1.3 1.6 0.8 0.7 0.5 0.1 0.0 0.0 0.1 0.0 0.8 1.3 4.7 7.0 7.1 4.2 1.7 0.8 0.4 0.3 0.3 0.2 0.0 0.0 0.0 0.0 0.0 0.0 0.0 0.0 0.0 0.0 0.0
0.0 0.0 0.0 0.0 0.0 0.0 0.0 0.0 0.0 0.0 0.0 0.0 0.4 1.6 0.0 0.0 0.0 0.0 0.3 0.7 0.2 0.2 0.4 0.3 0.0 0.0 0.1 0.0 0.0 0.6 0.0 2.3 4.1 3.9 4.2 2.3 0.0 0.0 0.0 0.0 0.0 0.0 0.0 0.0 0.0 0.0 0.0 0.0 0.0 0.0 0.0 0.0 0.0 0.0
0.0 0.0 0.0 0.0 0.0 0.0 0.0 0.0 0.0 0.0 0.0 0.0 0.6 2.1 2.5 2.2 1.5 0.3 0.1 0.0 0.0 0.9 0.7 0.0 0.0 0.6 0.0 0.0 1.2 2.4 4.0 3.9 2.5 2.5 0.9 0.0 0.0 0.0 0.0 0.0 0.0 0.0 0.0 0.0 0.0 0.0 0.0 0.0 0.0 0.0 0.0 0.0 0.0 0.0
0.0 0.0 0.0 0.0 0.0 0.0 0.0 0.0 0.0 0.0 0.0 0.2 1.7 1.6 1.1 1.2 0.2 0.0 0.0 0.0 0.0 0.2 0.0 0.0 0.0 0.0 0.8 4.2 6.1 7.1 5.6 3.5 0.9 0.4 0.0 0.0 0.0 0.0 0.0 0.0 0.0 0.0 0.0 0.0 0.0 0.0 0.0 0.0 0.0 0.0 0.0 0.0 0.0 0.0
0.0 0.0 0.0 0.0 0.0 0.0 0.0 0.0 0.0 0.0 0.1 0.5 0.7 0.0 0.0 0.0 0.0 0.0 0.0 0.0 0.0 0.0 0.0 0.0 0.0 1.5 5.1 8.3 8.8 5.8 2.9 0.5 0.1 0.0 0.0 0.0 0.0 0.0 0.0 0.0 0.0 0.0 0.0 0.0 0.0 0.0 0.0 0.0 0.0 0.0 0.0 0.0 0.0 0.0
0.0 0.0 0.0 0.0 0.0 0.0 0.0 0.0 0.0 0.0 0.0 0.3 0.0 0.3 1.8 1.0 0.0 0.0 0.0 0.0 0.0 0.0 0.0 2.6 6.0 6.3 6.4 6.6 4.8 2.7 1.1 0.0 0.0 0.0 0.0 0.0 0.0 0.0 0.0 0.0 0.0 0.0 0.0 0.0 0.0 0.0 0.0 0.0 0.0 0.0 0.0 0.0 0.0 0.0
0.0 0.0 0.0 0.0 0.0 0.0 0.0 0.0 0.0 0.0 0.0 0.3 0.0 1.0 2.2 0.8 0.2 0.0 0.0 0.0 0.0 1.3 5.8 7.9 7.4 6.6 4.8 2.9 1.1 0.0 0.0 0.0 0.0 0.0 0.0 0.0 0.0 0.0 0.0 0.0 0.0 0.0 0.0 0.0 0.0 0.0 0.0 0.0 0.2 0.1 0.0 0.0 0.0 0.0
0.0 0.0 0.0 0.0 0.0 0.0 0.0 0.0 0.0 0.0 0.0 0.0 0.1 0.2 0.1 0.5 1.5 1.5 0.1 0.0 2.8 4.5 6.4 6.1 3.5 2.6 1.4 0.2 0.0 0.0 0.0 0.0 0.0 0.0 0.0 0.0 0.0 0.0 0.0 0.0 0.0 0.0 0.0 0.0 0.0 0.0 0.0 0.0 0.4 0.3 0.0 0.0 0.0 0.0
0.0 0.0 0.0 0.0 0.0 0.0 0.0 0.0 0.0 0.0 0.0 0.0 0.0 0.1 0.5 0.3 0.8 0.0 0.1 0.8 3.1 4.1 2.8 1.7 1.0 0.8 0.0 0.0 0.0 0.0 0.0 0.0 0.0 0.0 0.0 0.0 0.0 0.0 0.0 0.0 0.0 0.0 0.0 0.0 0.0 0.0 0.0 0.1 0.0 0.2 0.0 0.0 0.0 0.0
0.0 0.0 0.0 0.0 0.0 0.0 0.0 0.0 0.0 0.0 0.0 0.0 0.0 0.0 0.0 0.3 0.0 0.1 0.5 0.9 1.8 1.3 0.5 0.1 0.0 0.0 0.0 0.0 0.0 0.0 0.0 0.0 0.0 0.0 0.0 0.0 0.0 0.0 0.0 0.0 0.0 0.0 0.1 0.0 0.0 0.0 0.0 0.0 0.1 0.0 0.0 0.0 0.0 0.1
0.0 0.0 0.0 0.0 0.0 0.0 0.0 0.0 0.0 0.0 0.0 0.0 0.0 0.0 0.0 0.1 0.2 0.6 0.7 1.2 0.9 0.5 0.2 0.0 0.0 0.0 0.0 0.0 0.0 0.0 0.0 0.0 0.0 0.0 0.0 0.0 0.0 0.0 0.0 0.0 0.0 0.0 0.0 0.0 0.0 0.1 0.0 0.1 0.1 0.1 0.1 0.1 0.1 0.3
0.0 0.0 0.0 0.0 0.0 0.0 0.0 0.0 0.0 0.0 0.0 0.0 0.0 0.0 0.0 0.0 0.1 0.4 0.5 0.5 0.6 0.4 0.3 0.0 0.0 0.0 0.0 0.0 0.0 0.0 0.0 0.0 0.0 0.0 0.0 0.0 0.0 0.0 0.0 0.0 0.0 0.0 0.0 0.6 1.2 0.6 0.3 0.3 0.3 0.2 0.1 0.1 0.1 0.6
0.0 0.0 0.0 0.0 0.0 0.0 0.0 0.0 0.0 0.0 0.0 0.0 0.0 0.0 0.0 0.0 0.0 0.1 0.2 0.2 0.2 0.2 0.2 0.1 0.0 0.0 0.0 0.0 0.0 0.0 0.0 0.0 0.0 0.0 0.0 0.0 0.0 0.0 0.1 1.0 1.0 0.0 0.8 0.5 0.7 1.6 1.5 0.8 0.6 0.4 0.3 0.1 0.0 0.2
0.0 0.0 0.0 0.0 0.0 0.0 0.0 0.0 0.0 0.0 0.0 0.0 0.0 0.0 0.0 0.0 0.0 0.1 0.0 0.0 0.0 0.0 0.0 0.0 0.0 0.0 0.0 0.0 0.0 0.0 0.0 0.0 0.0 0.0 0.0 0.0 0.0 0.0 0.0 0.0 0.0 0.3 0.5 0.7 1.7 1.5 1.2 1.1 1.8 1.3 0.9 0.5 0.2 0.0
0.0 0.0 0.0 0.0 0.0 0.0 0.0 0.0 0.0 0.0 0.0 0.0 0.0 0.0 0.0 0.0 0.0 0.0 0.1 0.1 0.2 0.2 0.1 0.0 0.0 0.0 0.0 0.0 0.0 0.0 0.0 0.0 0.0 0.0 0.0 0.0 0.0 0.0 0.0 0.0 0.0 0.0 0.2 0.3 0.5 0.9 1.4 2.4 2.1 1.8 1.1 0.7 0.4 0.3
0.1 0.2 0.0 0.0 0.0 0.0 0.0 0.0 0.0 0.0 0.0 0.0 0.0 0.0 0.0 0.0 0.1 0.0 0.1 0.3 0.3 0.2 0.2 0.1 0.0 0.0 0.0 0.0 0.0 0.0 0.0 0.0 0.0 0.0 0.0 0.0 0.0 0.0 0.0 0.0 0.2 0.1 0.0 0.0 0.3 0.4 0.5 0.4 0.3 0.5 0.6 0.4 0.4 0.5
0.0 0.3 0.2 0.1 0.0 0.0 0.1 0.0 0.0 0.0 0.0 0.0 0.0 0.0 0.0 0.0 0.0 0.0 0.0 0.0 0.1 0.1 0.1 0.1 0.1 0.0 0.0 0.0 0.0 0.0 0.0 0.0 0.0 0.0 0.1 0.2 0.0 0.0 0.2 0.9 0.5 0.0 0.1 0.1 0.0 0.4 0.6 0.6 0.5 0.6 0.7 0.6 0.6 0.6
0.0 0.2 0.4 0.3 0.2 0.3 0.4 0.2 0.1 0.0 0.0 0.0 0.0 0.0 0.0 0.0 0.0 0.0 0.0 0.0 0.0 0.1 0.1 0.1 0.1 0.1 0.0 0.0 0.0 0.0 0.0 0.0 0.0 0.0 0.0 0.0 0.2 0.3 0.8 1.3 0.3 0.0 0.1 0.0 0.0 0.3 0.3 0.5 0.4 0.5 0.6 0.5 0.6 0.6
0.1 0.3 0.7 0.7 0.8 0.5 0.2 0.0 0.0 0.0 0.0 0.0 0.0 0.0 0.0 0.0 0.0 0.0 0.0 0.0 0.1 0.1 0.2 0.1 0.0 0.0 0.0 0.0 0.0 0.0 0.0 0.0 0.0 0.0 0.5 0.8 0.9 1.0 2.0 1.4 0.0 0.0 0.0 0.0 0.0 0.0 0.2 0.3 0.2 0.4 0.4 0.4 0.5 0.6